Hourly Weather Kozyrivka

Today, 29 October, Thursday

Time Temperature Precipitation Wind Pressure Humidity
00:00 +9°C° 0 mm 2 mps 752 mmHg 78%
01:00 +9°C° 0 mm 2 mps 752 mmHg 80%
02:00 +9°C° 0 mm 2 mps 752 mmHg 82%
03:00 +8°C° 0 mm 2 mps 752 mmHg 85%
04:00 +8°C° 0 mm 2 mps 752 mmHg 87%
05:00 +7°C° 0 mm 2 mps 751 mmHg 90%
06:00 +8°C° 0 mm 2 mps 751 mmHg 89%
07:00 +8°C° 0 mm 2 mps 751 mmHg 88%
08:00 +9°C° 0 mm 2 mps 751 mmHg 86%
09:00 +10°C° 0 mm 2 mps 751 mmHg 80%
10:00 +12°C° 0 mm 2 mps 751 mmHg 74%
11:00 +14°C° 0 mm 2 mps 751 mmHg 68%
12:00 +14°C° 0 mm 2 mps 751 mmHg 66%
13:00 +14°C° 0 mm 1 mps 751 mmHg 65%
14:00 +15°C° 0 mm 1 mps 750 mmHg 63%
15:00 +14°C° 0 mm 1 mps 750 mmHg 66%
16:00 +14°C° 0 mm 1 mps 750 mmHg 69%
17:00 +13°C° 0 mm 1 mps 750 mmHg 72%
18:00 +13°C° 0 mm 1 mps 750 mmHg 73%
19:00 +12°C° 0 mm 1 mps 750 mmHg 75%
20:00 +12°C° 0 mm 1 mps 750 mmHg 76%
21:00 +12°C° 0 mm 1 mps 750 mmHg 77%
22:00 +11°C° 0 mm 1 mps 749 mmHg 78%
23:00 +11°C° 0 mm 1 mps 749 mmHg 79%

Tomorrow, 30 October, Friday

Time Temperature Precipitation Wind Pressure Humidity
00:00 +11°C° 0 mm 1 mps 749 mmHg 79%
01:00 +11°C° 0 mm 1 mps 749 mmHg 80%
02:00 +11°C° 0 mm 1 mps 749 mmHg 80%
03:00 +10°C° 0 mm 1 mps 749 mmHg 82%
04:00 +9°C° 0 mm 2 mps 749 mmHg 84%
05:00 +8°C° 0 mm 2 mps 749 mmHg 86%
06:00 +9°C° 0 mm 2 mps 749 mmHg 84%
07:00 +10°C° 0 mm 1 mps 750 mmHg 82%
08:00 +11°C° 0 mm 1 mps 750 mmHg 81%
09:00 +12°C° 0 mm 1 mps 750 mmHg 76%
10:00 +13°C° 0 mm 1 mps 750 mmHg 72%
11:00 +14°C° 0 mm 1 mps 750 mmHg 68%
12:00 +15°C° 0 mm 2 mps 750 mmHg 63%
13:00 +15°C° 0 mm 2 mps 750 mmHg 59%
14:00 +16°C° 0 mm 2 mps 750 mmHg 55%
15:00 +15°C° 0 mm 2 mps 750 mmHg 58%
16:00 +14°C° 0 mm 2 mps 750 mmHg 61%
17:00 +14°C° 0 mm 1 mps 750 mmHg 64%
18:00 +13°C° 0 mm 1 mps 750 mmHg 66%
19:00 +13°C° 0 mm 1 mps 750 mmHg 68%
20:00 +12°C° 0 mm 1 mps 750 mmHg 70%
21:00 +12°C° 0 mm 1 mps 750 mmHg 70%
22:00 +12°C° 0 mm 1 mps 750 mmHg 71%
23:00 +12°C° 0 mm 1 mps 750 mmHg 71%

Day after tomorrow, 31 October, Saturday

Time Temperature Precipitation Wind Pressure Humidity
00:00 +12°C° 0 mm 1 mps 750 mmHg 75%
01:00 +10°C° 0 mm 2 mps 750 mmHg 79%
02:00 +10°C° 0 mm 2 mps 749 mmHg 83%
03:00 +10°C° 0.5 mm 2 mps 749 mmHg 86%
04:00 +10°C° 0.5 mm 3 mps 749 mmHg 89%
05:00 +10°C° 0.5 mm 3 mps 749 mmHg 92%
06:00 +10°C° 0.5 mm 3 mps 749 mmHg 91%
07:00 +10°C° 0.5 mm 2 mps 749 mmHg 90%
08:00 +10°C° 0.5 mm 2 mps 749 mmHg 89%
09:00 +10°C° 0.2 mm 2 mps 749 mmHg 87%
10:00 +10°C° 0.2 mm 2 mps 749 mmHg 85%
11:00 +10°C° 0.2 mm 2 mps 749 mmHg 82%
12:00 +12°C° 0.4 mm 2 mps 749 mmHg 81%
13:00 +12°C° 0.4 mm 2 mps 749 mmHg 81%
14:00 +11°C° 0.4 mm 3 mps 748 mmHg 80%
15:00 +10°C° 0.5 mm 3 mps 749 mmHg 82%
16:00 +10°C° 0.5 mm 3 mps 749 mmHg 83%
17:00 +10°C° 0.5 mm 3 mps 749 mmHg 85%
18:00 +10°C° 0.3 mm 3 mps 749 mmHg 86%
19:00 +9°C° 0.3 mm 3 mps 749 mmHg 87%
20:00 +9°C° 0.3 mm 3 mps 749 mmHg 88%
21:00 +9°C° 0.3 mm 3 mps 749 mmHg 90%
22:00 +9°C° 0.3 mm 3 mps 749 mmHg 91%
23:00 +9°C° 0.3 mm 3 mps 749 mmHg 92%

1 November, Sunday

Time Temperature Precipitation Wind Pressure Humidity
00:00 +9°C° 0.1 mm 3 mps 749 mmHg 91%
01:00 +9°C° 0.1 mm 2 mps 750 mmHg 90%
02:00 +9°C° 0.1 mm 2 mps 750 mmHg 90%
03:00 +9°C° 0 mm 3 mps 750 mmHg 87%
04:00 +9°C° 0 mm 3 mps 750 mmHg 85%
05:00 +8°C° 0 mm 4 mps 750 mmHg 83%
06:00 +8°C° 0 mm 4 mps 750 mmHg 84%
07:00 +8°C° 0 mm 4 mps 750 mmHg 85%
08:00 +8°C° 0 mm 4 mps 750 mmHg 86%
09:00 +10°C° 0 mm 4 mps 750 mmHg 82%
10:00 +10°C° 0 mm 5 mps 750 mmHg 79%
11:00 +11°C° 0 mm 6 mps 750 mmHg 75%
12:00 +11°C° 0 mm 6 mps 749 mmHg 75%
13:00 +13°C° 0 mm 6 mps 749 mmHg 74%
14:00 +13°C° 0 mm 6 mps 749 mmHg 73%
15:00 +11°C° 0.4 mm 6 mps 749 mmHg 77%
16:00 +11°C° 0.4 mm 6 mps 749 mmHg 80%
17:00 +10°C° 0.4 mm 6 mps 749 mmHg 84%
18:00 +10°C° 1.2 mm 6 mps 749 mmHg 86%
19:00 +10°C° 1.2 mm 7 mps 750 mmHg 87%
20:00 +10°C° 1.2 mm 7 mps 750 mmHg 89%
21:00 +10°C° 2.7 mm 6 mps 750 mmHg 90%
22:00 +10°C° 2.7 mm 6 mps 750 mmHg 91%
23:00 +9°C° 2.7 mm 5 mps 750 mmHg 92%

2 November, Monday

Time Temperature Precipitation Wind Pressure Humidity
00:00 +10°C° 1.2 mm 4 mps 750 mmHg 92%
01:00 +10°C° 1.2 mm 4 mps 750 mmHg 92%
02:00 +10°C° 1.2 mm 3 mps 750 mmHg 92%
03:00 +10°C° 0.5 mm 3 mps 750 mmHg 92%
04:00 +9°C° 0.5 mm 3 mps 750 mmHg 91%
05:00 +9°C° 0.5 mm 2 mps 750 mmHg 91%
06:00 +9°C° 0.1 mm 2 mps 750 mmHg 90%
07:00 +9°C° 0.1 mm 2 mps 750 mmHg 88%
08:00 +9°C° 0.1 mm 2 mps 750 mmHg 87%
09:00 +12°C° 0 mm 2 mps 750 mmHg 80%
10:00 +12°C° 0 mm 3 mps 750 mmHg 73%
11:00 +13°C° 0 mm 3 mps 750 mmHg 66%
12:00 +12°C° 0.8 mm 4 mps 750 mmHg 68%
13:00 +12°C° 0.8 mm 4 mps 750 mmHg 71%
14:00 +12°C° 0.8 mm 5 mps 750 mmHg 74%
15:00 +12°C° 1.3 mm 5 mps 750 mmHg 78%
16:00 +10°C° 1.3 mm 5 mps 750 mmHg 82%
17:00 +10°C° 1.3 mm 6 mps 750 mmHg 85%
18:00 +10°C° 0.8 mm 6 mps 750 mmHg 86%
19:00 +10°C° 0.8 mm 5 mps 750 mmHg 87%
20:00 +9°C° 0.8 mm 5 mps 750 mmHg 88%
21:00 +9°C° 0.4 mm 5 mps 751 mmHg 89%
22:00 +10°C° 0.4 mm 4 mps 751 mmHg 90%
23:00 +10°C° 0.4 mm 4 mps 751 mmHg 91%

3 November, Tuesday

Time Temperature Precipitation Wind Pressure Humidity
00:00 +8°C° 0.1 mm 4 mps 751 mmHg 91%
01:00 +8°C° 0.1 mm 4 mps 752 mmHg 91%
02:00 +8°C° 0.1 mm 5 mps 752 mmHg 91%
03:00 +8°C° 0 mm 4 mps 753 mmHg 91%
04:00 +8°C° 0 mm 4 mps 753 mmHg 91%
05:00 +7°C° 0 mm 4 mps 753 mmHg 92%
06:00 +8°C° 0 mm 3 mps 754 mmHg 91%
07:00 +8°C° 0 mm 3 mps 754 mmHg 90%
08:00 +9°C° 0 mm 3 mps 755 mmHg 90%
09:00 +10°C° 0 mm 3 mps 755 mmHg 85%
10:00 +11°C° 0 mm 4 mps 755 mmHg 80%
11:00 +13°C° 0 mm 4 mps 755 mmHg 75%
12:00 +13°C° 0.1 mm 4 mps 755 mmHg 72%
13:00 +14°C° 0.1 mm 4 mps 756 mmHg 69%
14:00 +14°C° 0.1 mm 4 mps 756 mmHg 65%
15:00 +13°C° 0 mm 4 mps 756 mmHg 69%
16:00 +12°C° 0 mm 3 mps 756 mmHg 74%
17:00 +13°C° 0 mm 2 mps 756 mmHg 78%
18:00 +12°C° 0 mm 2 mps 756 mmHg 80%
19:00 +12°C° 0 mm 2 mps 756 mmHg 83%
20:00 +10°C° 0 mm 3 mps 756 mmHg 86%
21:00 +10°C° 0 mm 3 mps 756 mmHg 87%
22:00 +10°C° 0 mm 3 mps 756 mmHg 89%
23:00 +10°C° 0 mm 3 mps 756 mmHg 90%
Show more